Temp
52 45 41 47 49 51 47 45 42 47 54 50 48 48 52 56 55 55 54 55 57 60 64 64 64 64 61 61 62 65 63 61 59 57 56 55 55 53 54 57 59 60 59 57
45 41 50 54 52 51 48 43 43 50 52 49 48 48 51 54 56 58 61 59 58 57 60 64 61 60 60 63 63 62 64 60 59 58 54 55 53 51 51 51 53 54 56 55
42 48 54 52 48 48 45 43 43 46 46 46 44 44 47 52 54 58 61 60 59 59 59 61 59 57 58 58 59 61 62 59 58 56 53 50 50 48 47 48 48 49 51 52
46 53 52 47 47 49 41 48 49 47 42 35 43 34 41 52 55 55 57 56 56 57 59 60 57 54 54 55 56 58 59 58 56 55 54 53 52 49 49 47 47 47 49 49
46 48 47 47 48 51 45 48 48 45 39 36 35 34 39 46 49 54 57 60 55 56 59 57 55 56 54 55 55 56 57 57 56 54 56 55 54 53 50 48 46 46 46 47
47 48 49 50 48 51 50 46 44 41 38 30 38 39 38 45 51 53 55 56 55 51 51 52 52 54 53 51 52 53 55 54 54 53 51 51 51 51 47 46 45 44 43 43
43 45 47 49 45 47 46 41 29 28 26 29 40 36 46 50 54 57 57 54 53 52 51 50 49 49 49 49 50 51 52 51 51 50 48 48 48 46 45 43 44 42 41 40
39 36 44 48 47 43 42 42 31 23 25 29 35 33 44 52 57 60 55 55 52 51 51 50 50 48 49 49 48 49 50 49 49 49 48 47 47 44 43 42 39 40 40 41
38 40 48 48 50 52 41 39 47 35 23 25 33 40 49 53 56 58 54 53 51 49 49 49 48 48 48 47 47 48 48 48 47 47 47 46 45 44 43 41 40 39 38 39
43 37 42 44 49 49 47 49 37 35 24 22 31 33 41 49 52 52 50 50 48 48 47 46 46 46 46 46 46 47 47 48 47 46 46 45 44 43 43 41 40 39 38 37
47 43 36 42 40 41 42 40 42 42 35 27 26 32 45 47 45 45 46 47 47 45 46 45 45 45 45 45 45 46 46 47 46 45 45 44 43 42 41 41 41 40 38 37
42 41 32 36 40 42 44 45 43 33 30 33 31 37 46 47 47 48 47 48 46 46 45 44 44 44 44 44 44 44 45 45 45 45 44 43 41 40 39 38 39 37 37 36
43 34 27 30 35 38 37 41 46 45 37 32 30 35 46 46 47 47 47 46 47 44 43 44 44 43 43 43 43 43 44 44 45 44 43 42 40 39 38 37 35 34 33 32
44 33 33 32 31 37 33 35 37 39 34 34 35 38 45 42 45 48 48 47 45 46 48 46 45 45 44 44 43 43 44 44 45 44 43 42 40 39 37 35 33 32 31 31
40 32 33 35 34 33 33 32 34 33 36 33 39 36 40 44 48 49 50 50 49 49 48 49 49 47 44 44 44 44 44 44 44 43 42 41 38 37 35 32 31 31 30 29
39 31 33 30 34 33 32 34 34 35 35 35 35 35 47 50 49 47 49 50 48 49 49 49 49 47 46 46 45 44 44 43 42 42 41 37 36 34 33 32 31 30 29 28
34 33 31 26 32 32 28 33 36 38 40 40 33 39 44 41 44 42 42 43 43 45 45 46 45 44 44 44 45 44 44 42 40 38 37 35 35 34 33 31 30 28 27 26
33 33 31 26 26 23 32 41 42 39 42 43 41 37 39 41 43 43 41 41 42 43 44 43 43 44 45 43 43 43 41 40 38 36 35 34 33 33 30 29 29 26 25 26
37 32 26 21 15 26 33 36 37 35 36 39 36 39 40 42 40 42 42 41 42 41 42 41 41 41 40 39 38 37 37 37 36 35 34 33 32 29 28 27 26 24 23 23
32 32 26 21 15 13 27 33 37 40 29 34 38 38 38 39 33 38 43 40 41 40 40 40 39 38 36 36 34 35 35 34 34 34 34 31 30 29 27 26 23 21 22 25
27 30 27 20 15 21 32 35 36 27 29 34 37 36 32 32 37 41 41 41 40 40 39 38 34 34 35 34 34 33 33 33 34 34 29 28 28 27 26 24 22 22 21 26
25 24 25 25 22 17 35 34 33 33 34 37 36 37 35 36 37 37 38 38 38 38 37 36 34 34 34 33 32 32 32 34 33 28 26 24 24 27 25 22 24 26 27 25
21 26 23 25 26 31 32 32 36 37 36 34 34 35 35 35 35 36 37 37 37 37 35 35 34 33 33 33 30 28 32 32 27 23 22 21 22 24 25 24 24 25 25 25
25 29 24 26 28 31 34 37 37 37 36 37 36 34 33 34 34 34 34 34 34 34 34 33 28 29 30 28 29 30 29 28 26 24 23 23 24 25 26 28 28 27 25 24
26 30 23 21 29 31 32 37 37 36 35 34 35 34 35 34 32 33 32 33 33 33 29 27 26 27 27 25 25 23 25 23 22 21 21 21 22 23 24 28 28 27 28 28
29 28 26 22 31 32 33 35 35 34 34 35 33 31 33 34 33 32 31 32 31 30 25 24 22 19 21 20 19 19 18 19 19 19 20 20 22 21 23 24 24 32 32 32
MSLP
1015.25 1015.94 1016.21 1016.36 1016.33 1016.06 1016.09 1016.25 1016.27 1015.99 1015.83 1016.42 1016.71 1016.39 1015.85 1015.10 1015.13 1014.77 1014.84 1014.28 1013.96 1013.65 1012.95 1013.05 1013.20 1013.32 1013.84 1014.40 1014.92 1015.27 1016.06 1016.73 1017.50 1018.60 1019.38 1020.19 1020.42 1021.00 1021.27 1021.34 1021.61 1022.14 1023.00 1023.76
1016.01 1015.93 1016.05 1015.90 1016.02 1016.18 1016.12 1016.21 1016.31 1016.10 1016.09 1016.66 1016.72 1016.29 1015.57 1015.06 1014.26 1013.83 1013.58 1013.37 1012.96 1012.86 1012.79 1012.65 1012.85 1013.13 1013.41 1013.73 1014.24 1014.95 1015.55 1016.50 1017.27 1018.01 1019.04 1019.93 1020.58 1021.36 1021.64 1021.83 1021.90 1021.97 1022.61 1023.36
1015.86 1015.50 1015.34 1015.90 1016.07 1016.27 1016.17 1016.27 1016.44 1016.63 1016.83 1016.92 1016.96 1015.99 1015.14 1013.92 1013.53 1012.72 1012.42 1012.17 1012.09 1012.14 1012.34 1012.29 1012.53 1012.74 1013.10 1013.48 1013.92 1014.50 1015.14 1016.11 1016.98 1017.77 1018.78 1020.16 1021.08 1021.69 1022.08 1022.26 1022.33 1022.29 1022.54 1023.11
1015.79 1015.21 1015.32 1015.79 1016.02 1016.24 1016.37 1016.25 1016.60 1017.12 1017.70 1018.02 1017.58 1016.22 1015.27 1014.06 1012.98 1012.48 1011.86 1011.50 1011.42 1011.80 1011.53 1011.81 1012.15 1012.77 1013.16 1013.54 1014.11 1014.52 1015.10 1015.84 1016.68 1017.36 1018.32 1019.35 1020.19 1021.11 1021.38 1021.78 1022.22 1022.44 1022.57 1023.06
1015.24 1015.08 1015.32 1015.60 1015.82 1015.96 1016.53 1016.54 1017.07 1017.69 1018.32 1018.57 1018.23 1017.94 1014.39 1013.70 1012.89 1012.02 1011.11 1010.74 1011.05 1011.36 1011.49 1011.75 1012.21 1012.49 1013.11 1013.56 1014.00 1014.45 1015.08 1015.80 1016.43 1017.16 1017.86 1018.73 1019.78 1020.30 1021.00 1021.63 1022.14 1022.43 1022.72 1022.95
1015.12 1015.11 1015.08 1015.11 1015.72 1015.81 1016.62 1017.33 1018.16 1018.80 1019.36 1019.21 1018.08 1017.60 1014.13 1013.03 1011.72 1011.00 1010.58 1010.55 1011.05 1011.77 1011.96 1012.42 1012.69 1013.09 1013.70 1014.03 1014.40 1014.82 1015.29 1015.87 1016.43 1017.13 1017.95 1018.50 1019.40 1020.10 1020.86 1021.43 1021.96 1022.39 1022.78 1023.13
1015.38 1015.15 1015.08 1015.27 1016.03 1016.42 1016.80 1018.06 1019.66 1020.51 1020.55 1018.75 1017.51 1017.09 1013.25 1011.84 1010.77 1010.39 1010.31 1010.81 1011.48 1012.26 1012.82 1013.22 1013.59 1013.86 1014.26 1014.63 1014.67 1015.05 1015.48 1016.02 1016.58 1017.19 1017.83 1018.39 1018.97 1019.48 1020.19 1020.86 1021.43 1022.13 1022.62 1023.01
1015.06 1015.31 1014.89 1014.97 1015.04 1015.70 1016.49 1016.96 1018.14 1019.24 1020.15 1019.04 1017.81 1015.51 1012.53 1011.04 1010.29 1009.97 1010.13 1010.64 1011.57 1012.43 1012.84 1013.38 1013.86 1014.21 1014.64 1015.07 1015.19 1015.28 1015.74 1016.29 1016.79 1017.28 1017.86 1018.33 1018.79 1019.18 1019.77 1020.38 1021.01 1021.62 1021.97 1022.16
1014.42 1014.13 1013.80 1013.83 1014.14 1014.54 1016.46 1016.51 1016.60 1018.11 1019.46 1019.14 1017.17 1014.61 1012.39 1011.01 1010.49 1010.21 1010.54 1011.22 1011.82 1012.60 1013.14 1013.60 1014.16 1014.54 1015.01 1015.44 1015.60 1015.66 1015.98 1016.44 1016.93 1017.34 1017.73 1018.19 1018.72 1019.02 1019.47 1020.00 1020.57 1021.08 1021.62 1022.00
1013.66 1014.19 1014.26 1014.23 1014.42 1014.41 1014.54 1015.33 1016.66 1017.46 1018.66 1018.66 1016.63 1015.20 1012.90 1011.95 1011.48 1011.35 1011.26 1011.79 1012.49 1012.91 1013.53 1014.08 1014.45 1014.70 1015.12 1015.49 1015.85 1016.03 1016.35 1016.56 1016.88 1017.18 1017.42 1018.02 1018.43 1018.74 1019.04 1019.43 1019.98 1020.54 1021.03 1021.55
1014.05 1014.43 1015.28 1014.72 1014.54 1014.31 1014.95 1015.05 1015.63 1016.24 1016.91 1016.93 1016.51 1014.86 1012.89 1012.60 1012.84 1012.70 1012.60 1012.44 1012.57 1013.34 1013.90 1014.28 1014.73 1014.96 1015.47 1015.74 1015.83 1015.96 1016.16 1016.21 1016.55 1016.86 1017.25 1017.62 1018.18 1018.67 1019.03 1019.35 1019.75 1020.22 1020.63 1021.10
1015.10 1014.90 1015.50 1015.30 1014.90 1014.76 1014.54 1014.46 1014.88 1015.68 1016.43 1016.50 1016.06 1013.99 1013.36 1012.98 1012.83 1012.77 1013.01 1012.96 1013.08 1013.49 1014.17 1014.67 1014.93 1015.16 1015.58 1016.01 1016.10 1016.05 1016.10 1016.20 1016.46 1016.78 1017.22 1017.64 1018.03 1018.43 1018.83 1019.24 1019.69 1020.19 1020.69 1021.01
1015.30 1015.96 1016.30 1016.27 1016.09 1015.55 1015.37 1015.36 1015.15 1015.38 1015.78 1015.70 1016.10 1013.99 1013.74 1013.27 1013.23 1013.15 1013.41 1013.43 1013.69 1014.04 1014.38 1014.79 1015.08 1015.36 1015.77 1016.17 1016.28 1016.26 1016.28 1016.30 1016.49 1016.76 1017.22 1017.68 1017.99 1018.19 1018.56 1019.04 1019.39 1019.72 1020.34 1021.07
1015.87 1016.45 1016.52 1016.45 1016.77 1016.67 1016.45 1016.23 1016.38 1016.28 1016.42 1015.60 1014.41 1014.40 1013.74 1013.73 1013.80 1013.55 1013.67 1013.70 1013.83 1014.07 1014.27 1014.79 1015.03 1015.21 1015.42 1015.72 1016.01 1016.06 1016.00 1016.13 1016.30 1016.67 1017.07 1017.42 1017.72 1018.12 1018.47 1018.93 1019.36 1019.71 1019.94 1020.31
1016.50 1016.98 1016.78 1017.16 1017.56 1017.55 1017.37 1017.31 1017.25 1017.16 1016.68 1016.58 1014.69 1014.76 1014.82 1014.20 1013.73 1013.68 1013.75 1013.55 1013.74 1014.18 1014.42 1014.29 1014.47 1014.48 1014.80 1015.35 1015.54 1015.65 1015.62 1015.63 1015.86 1016.42 1016.88 1017.10 1017.49 1017.93 1018.40 1019.05 1019.62 1019.85 1020.22 1020.40
1016.89 1017.34 1017.58 1017.75 1017.48 1017.52 1017.43 1017.19 1017.14 1017.11 1017.02 1016.86 1016.34 1015.77 1014.60 1014.12 1014.06 1014.08 1014.37 1014.34 1014.39 1014.74 1014.41 1014.68 1014.90 1014.94 1014.99 1015.15 1015.09 1015.42 1015.38 1015.37 1015.70 1016.02 1016.29 1016.69 1017.21 1017.69 1018.08 1018.74 1019.42 1019.96 1020.29 1020.51
1017.09 1017.56 1018.10 1018.25 1017.90 1017.77 1017.19 1015.29 1015.30 1015.32 1015.18 1015.21 1015.78 1015.01 1014.71 1014.98 1014.94 1015.27 1015.36 1015.30 1015.42 1015.59 1015.69 1015.72 1015.73 1015.56 1015.39 1015.32 1015.35 1015.15 1014.79 1014.96 1015.36 1015.56 1015.86 1016.47 1016.92 1017.41 1017.78 1018.40 1019.09 1019.50 1020.00 1020.32
1017.24 1017.96 1018.28 1018.50 1018.29 1017.51 1014.59 1013.76 1013.68 1013.86 1014.20 1014.50 1014.87 1015.33 1015.31 1015.39 1015.44 1015.88 1015.96 1015.84 1015.76 1015.76 1015.82 1015.93 1016.08 1016.01 1015.69 1015.55 1015.09 1014.69 1014.69 1014.77 1015.05 1015.27 1015.74 1016.26 1016.75 1017.14 1017.74 1018.26 1018.66 1019.16 1019.39 1019.66
1017.25 1017.97 1018.59 1018.64 1018.64 1016.54 1014.59 1013.78 1013.78 1013.86 1014.14 1014.53 1015.06 1015.60 1015.71 1015.55 1015.65 1015.97 1015.99 1015.94 1015.99 1016.08 1016.06 1016.01 1016.01 1015.89 1015.71 1015.51 1015.43 1015.36 1015.23 1015.30 1015.24 1015.30 1015.61 1016.04 1016.52 1017.09 1017.61 1018.19 1018.73 1019.26 1019.75 1019.99
1017.73 1018.17 1018.68 1018.93 1018.71 1017.23 1015.07 1013.58 1013.24 1013.42 1014.51 1014.89 1015.12 1015.61 1015.79 1015.73 1016.04 1016.01 1015.80 1015.94 1015.95 1016.04 1015.96 1016.06 1016.21 1016.22 1016.03 1015.77 1015.68 1015.62 1015.45 1015.38 1015.37 1015.28 1015.45 1015.76 1016.11 1016.76 1017.41 1018.02 1018.63 1018.97 1019.40 1019.71
1018.01 1018.33 1018.13 1018.79 1018.64 1016.84 1014.79 1013.70 1013.54 1014.33 1015.26 1015.15 1015.56 1016.02 1016.13 1016.42 1016.39 1016.21 1016.09 1015.98 1016.08 1015.91 1015.96 1016.13 1016.40 1016.49 1016.33 1016.07 1015.79 1015.63 1015.63 1015.71 1015.31 1015.25 1015.50 1015.82 1016.09 1016.65 1017.12 1017.63 1018.01 1018.52 1019.28 1019.88
1017.24 1017.63 1017.67 1018.23 1018.32 1016.92 1014.37 1014.37 1014.36 1014.79 1015.09 1015.33 1015.73 1016.02 1016.28 1016.53 1016.57 1016.51 1016.39 1016.32 1016.29 1016.17 1016.09 1016.19 1016.40 1016.42 1016.17 1016.04 1016.02 1015.93 1015.47 1015.05 1014.94 1015.31 1015.80 1015.97 1016.01 1016.10 1016.61 1017.33 1017.97 1018.47 1018.92 1019.54
1016.59 1015.68 1016.24 1016.27 1015.64 1014.76 1014.49 1014.34 1014.51 1014.69 1015.06 1015.43 1015.64 1015.88 1016.17 1016.57 1016.76 1016.62 1016.47 1016.53 1016.54 1016.37 1016.18 1016.16 1016.38 1016.27 1016.07 1016.04 1015.95 1015.89 1015.54 1015.45 1015.20 1015.47 1015.73 1016.32 1016.39 1016.44 1016.86 1017.09 1017.34 1018.06 1018.61 1019.10
1015.92 1015.33 1015.45 1015.74 1015.42 1015.04 1014.79 1014.66 1014.73 1015.00 1015.32 1015.58 1015.87 1016.21 1016.60 1016.91 1016.93 1016.98 1016.83 1016.67 1016.63 1016.54 1016.52 1016.48 1016.57 1016.40 1016.34 1016.21 1016.21 1016.06 1015.75 1015.47 1015.80 1016.02 1016.36 1016.52 1016.47 1016.41 1016.96 1017.04 1017.09 1017.60 1018.14 1018.35
1015.17 1015.09 1015.30 1015.55 1015.33 1015.36 1015.18 1015.08 1015.18 1015.44 1015.74 1016.05 1016.16 1016.48 1016.70 1016.79 1016.83 1016.81 1016.81 1016.81 1016.74 1016.66 1016.59 1016.73 1016.71 1016.66 1016.64 1016.59 1016.41 1016.26 1016.05 1016.11 1016.21 1016.27 1016.59 1016.82 1017.14 1016.97 1016.89 1017.05 1017.01 1016.79 1017.51 1017.73
1014.62 1014.51 1014.86 1015.17 1015.05 1015.11 1015.43 1015.60 1015.79 1016.08 1016.31 1016.35 1016.61 1016.82 1016.77 1016.97 1017.09 1017.13 1017.19 1017.10 1017.02 1016.96 1017.07 1017.10 1017.22 1017.29 1017.10 1016.82 1016.79 1016.73 1016.22 1016.11 1016.40 1016.45 1016.30 1016.42 1016.42 1016.58 1016.98 1016.50 1017.11 1017.22 1016.65 1016.97
Wind_Speed
3 5 7 10 9 7 3 2 1 3 5 5 8 9 10 10 7 11 10 11 11 12 10 9 12 11 9 9 11 14 12 9 10 6 5 3 4 2 1 3 9 13 11 11
4 6 9 8 5 6 4 2 4 5 3 3 6 12 10 9 10 13 16 12 14 7 6 9 10 10 11 14 13 12 14 13 9 8 4 3 3 2 2 1 3 7 11 12
8 6 12 6 3 5 4 5 4 6 0 3 5 10 8 8 6 10 15 12 10 11 11 10 8 11 10 10 12 13 14 13 9 9 8 5 4 3 2 1 1 3 8 10
8 8 5 6 6 6 4 4 5 4 1 4 3 11 6 8 12 6 11 10 11 11 9 8 7 7 9 7 7 9 12 13 10 12 9 8 6 5 4 4 3 4 6 8
8 8 7 8 6 8 6 2 4 4 3 1 2 4 10 4 8 12 12 15 8 9 9 9 8 7 5 8 8 7 9 11 12 12 11 10 8 4 4 3 7 5 4 7
5 1 4 8 2 6 9 6 8 6 3 5 8 7 5 6 7 7 6 6 5 5 7 8 6 7 5 3 5 6 8 8 11 11 9 11 10 7 5 5 6 5 4 4
3 4 3 4 7 5 6 8 2 3 1 9 6 6 10 6 6 5 5 6 7 7 6 6 7 6 5 6 7 6 7 6 7 9 8 8 9 8 9 7 7 8 5 3
10 7 11 7 10 11 9 9 9 10 6 6 3 10 8 10 8 6 4 6 6 7 7 6 6 6 6 6 6 7 7 5 7 8 8 7 7 4 5 6 5 5 6 6
7 7 4 7 6 14 7 10 8 4 1 4 6 8 8 7 9 8 4 8 8 7 7 8 7 6 5 5 6 6 6 5 6 7 6 6 6 7 7 8 6 5 5 5
3 1 3 1 2 2 8 8 3 1 4 4 6 6 9 4 7 10 7 7 5 5 6 5 5 5 4 4 3 4 5 7 7 7 7 6 6 6 6 7 8 8 7 7
4 2 3 5 7 10 4 4 4 5 6 7 4 8 5 5 3 4 6 7 1 3 3 4 4 3 4 3 6 6 7 8 7 8 7 7 7 7 6 6 7 8 7 8
1 2 6 7 3 1 3 10 8 6 3 5 4 9 1 7 5 5 5 5 5 4 2 3 4 4 4 5 5 6 6 6 5 5 6 6 6 6 7 7 6 6 7 7
3 2 2 5 4 2 4 2 6 3 3 9 7 7 5 3 8 5 5 5 2 5 4 4 3 3 4 5 5 5 5 6 5 6 6 6 7 7 8 7 7 7 7 7
4 5 4 7 1 1 4 3 4 1 7 5 13 2 8 7 7 7 8 4 1 3 5 3 3 5 6 6 6 7 7 6 6 6 6 7 8 7 7 6 7 7 7 8
5 4 4 5 4 3 2 2 1 2 4 6 11 14 9 14 11 6 8 4 2 4 6 7 9 8 5 6 7 7 7 7 7 7 7 8 6 6 6 6 6 6 6 6
5 3 2 3 11 9 6 11 11 9 7 7 13 15 14 11 5 7 8 6 4 6 5 7 7 6 6 6 6 6 7 7 7 8 10 7 7 7 7 7 7 6 6 6
6 5 4 4 3 6 8 17 15 11 15 12 11 8 3 4 5 5 6 6 6 6 5 5 5 5 5 4 5 6 7 5 7 8 7 7 7 9 9 8 8 8 8 6
6 4 3 3 3 7 6 3 11 18 7 10 2 4 2 3 2 3 1 3 5 5 4 3 3 4 3 4 5 6 6 5 6 7 6 7 7 7 7 8 9 7 6 10
5 4 3 5 4 6 8 4 8 10 10 5 7 4 1 2 4 4 2 2 3 4 5 5 4 3 5 6 6 6 6 5 4 6 6 6 7 7 7 8 7 3 4 3
3 3 3 2 5 9 8 4 2 5 4 5 7 5 2 3 3 3 3 3 4 4 3 5 6 4 5 5 4 5 6 6 6 6 6 5 6 8 8 6 7 4 4 5
5 5 10 3 3 9 7 4 2 5 6 5 6 4 3 2 3 4 7 7 5 5 6 4 4 4 6 6 4 3 4 6 6 5 3 5 6 6 5 6 4 5 4 3
10 9 6 4 3 11 7 3 7 4 3 5 4 4 2 3 6 6 8 8 8 8 6 5 5 6 6 4 3 6 6 4 3 1 2 3 5 5 7 8 5 6 7 6
3 8 8 10 8 3 2 6 4 4 4 2 2 1 1 4 5 9 8 7 7 8 7 4 5 6 6 5 4 4 5 4 2 3 4 3 3 3 5 7 8 6 6 6
4 3 4 5 2 6 6 4 4 3 4 4 4 2 2 6 7 8 8 8 6 5 6 3 3 5 6 4 5 5 5 2 3 1 1 1 4 4 5 5 6 5 6 6
5 7 6 1 3 4 1 4 4 3 3 2 4 4 5 6 6 7 6 6 6 6 4 2 3 4 6 5 5 4 3 2 2 3 3 2 1 2 2 3 5 7 6 7
5 6 5 5 5 4 4 6 5 5 6 9 6 4 4 7 7 4 6 6 5 7 3 4 4 3 5 4 4 4 3 4 4 4 3 3 4 3 2 4 2 11 10 16
Wind_Direction
211 120 185 199 192 202 170 196 244 271 203 152 220 255 252 267 271 279 257 251 247 243 238 223 213 206 184 172 167 173 163 161 141 139 140 139 152 129 119 150 162 164 165 161
58 215 216 205 207 216 223 256 258 293 165 156 273 262 249 258 245 232 249 251 242 240 234 247 212 196 182 180 178 167 173 160 159 150 118 123 125 95 94 100 152 137 160 160
165 228 192 178 188 171 205 178 205 216 330 301 319 276 265 263 254 260 254 242 243 229 229 239 220 199 183 178 177 171 168 158 149 130 114 83 69 70 99 182 150 162 149 163
217 234 134 179 207 147 224 202 202 248 59 240 121 287 289 279 271 242 265 256 240 235 236 222 191 175 174 173 148 150 157 157 155 148 149 161 167 168 187 167 163 168 155 161
238 161 176 203 197 162 216 144 161 176 172 341 222 280 270 286 282 268 243 253 248 243 224 196 180 158 161 159 173 163 151 159 162 164 172 172 186 175 143 144 160 163 163 165
185 183 167 191 93 163 145 75 37 34 76 276 183 186 218 206 212 267 291 245 168 118 99 94 92 119 113 117 139 160 160 156 161 161 163 172 175 161 151 159 170 172 165 168
171 202 160 128 79 32 97 94 10 334 343 243 230 193 247 269 230 209 211 171 168 152 143 133 119 119 123 142 152 156 153 152 150 148 155 164 179 171 177 172 175 169 167 179
185 250 162 186 180 172 192 159 167 192 198 251 342 238 246 226 254 259 40 198 161 170 163 161 164 158 162 166 158 142 145 130 146 150 158 164 177 166 168 168 158 180 194 185
173 243 150 184 159 152 203 215 177 88 40 47 226 290 289 267 263 277 232 184 191 177 171 170 166 172 170 176 180 169 163 165 162 171 164 172 169 164 168 173 165 175 162 167
252 202 328 81 80 281 171 151 100 242 170 241 255 262 242 308 317 321 314 236 218 193 163 154 164 164 177 175 181 171 188 190 177 183 180 186 190 179 174 166 175 178 170 161
164 141 311 126 202 176 152 198 198 158 162 177 267 258 254 94 30 42 20 23 100 155 167 177 174 147 154 171 185 189 191 188 184 183 188 184 189 188 177 178 172 170 154 162
336 203 206 203 195 360 290 215 188 163 225 217 162 250 102 134 147 106 45 61 72 101 157 164 146 150 171 208 219 210 210 208 209 187 181 188 174 172 176 180 168 154 169 169
165 332 69 351 343 29 208 237 234 229 80 205 168 250 191 97 58 49 58 51 98 118 119 137 143 181 220 242 243 237 235 224 209 190 194 193 190 182 181 182 169 162 156 163
72 159 220 233 215 3 169 72 37 272 211 204 234 163 255 45 16 6 7 335 196 212 182 202 189 224 229 228 235 237 235 225 208 205 202 202 198 190 180 176 174 175 172 166
128 203 154 164 167 140 135 98 63 245 307 225 274 279 324 305 298 293 292 322 293 243 238 211 216 222 212 227 233 235 238 213 194 212 211 214 186 175 167 170 183 175 176 174
170 167 139 216 179 174 194 200 207 203 202 230 253 275 242 277 292 314 300 314 328 287 283 295 308 295 270 264 252 246 243 228 192 209 221 187 180 174 176 173 177 174 173 171
146 142 154 239 212 154 265 220 204 194 190 179 222 224 3 52 47 34 24 30 33 44 28 15 8 23 13 342 290 266 259 222 210 216 212 190 182 183 182 172 170 179 183 167
146 164 167 162 92 228 255 169 203 200 186 210 271 107 99 166 243 143 340 28 11 354 4 350 328 319 300 306 326 336 318 256 228 225 209 190 184 184 170 173 186 178 172 180
147 146 165 148 196 304 304 204 160 171 223 159 139 139 214 293 170 204 148 42 348 328 313 301 309 312 331 351 345 334 321 305 260 244 214 196 178 175 171 185 182 174 163 180
141 117 134 109 164 210 243 249 243 124 270 181 135 155 109 8 112 257 327 348 305 278 293 314 329 327 336 337 340 336 316 309 277 263 235 189 172 171 183 181 169 150 160 185
163 191 205 180 223 284 241 233 254 105 232 170 161 167 170 138 194 270 313 307 307 298 327 328 342 317 305 312 327 320 307 282 275 261 199 177 171 173 169 152 145 145 139 161
172 167 186 148 185 265 190 85 159 164 116 146 166 150 165 246 286 281 292 290 299 305 323 329 316 309 302 292 318 306 288 265 272 217 180 174 171 161 154 151 143 153 161 169
219 179 173 173 206 208 168 133 141 132 140 131 99 11 340 311 300 305 289 301 285 295 301 291 268 289 290 276 221 246 273 282 172 143 171 179 158 147 161 156 154 154 161 167
255 155 154 92 212 143 129 131 117 138 140 153 186 229 285 271 291 271 285 288 289 284 287 271 272 287 292 295 272 253 291 226 154 164 216 179 163 153 173 178 161 168 179 183
187 137 169 308 130 147 216 117 137 127 109 227 253 229 246 272 277 263 269 286 287 288 284 271 275 284 289 306 289 275 267 180 175 152 158 159 216 175 177 208 193 176 197 199
178 165 163 205 170 133 198 139 160 200 215 222 228 268 263 241 256 258 276 279 278 288 283 303 290 280 286 306 310 323 309 178 172 193 179 194 176 159 201 170 194 219 197 201